Regional Weather Roundup
Issued by NWS Boston, MA

Home | Current Version | Previous Version | Text Only | Print | Product List | Glossary On
Versions: 1 2 3 4 5 6 7 8 9 10 11 12 13 14 15 16 17 18 19 20 21 22 23 24 25 26 27 28 29 30 31 32 33 34 35 36 37 38 39 40 41 42 43 44 45 46 47 48 49 50
000
ASUS41 KBOX 061610
RWRBOX

REGIONAL WEATHER ROUNDUP
NATIONAL WEATHER SERVICE TAUNTON MA
1200 PM EDT FRI MAY 06 2016

NOTE:  "FAIR" INDICATES FEW OR NO CLOUDS BELOW 12,000 FEET WITH NO
SIGNIFICANT WEATHER AND/OR OBSTRUCTIONS TO VISIBILITY.  THE FOLLOWING
OBSERVATION LOCATIONS DO NOT REPORT PRESENT WEATHER...PROVINCETOWN...
SMITHFIELD...BLOCK ISLAND...KEENE...AND OXFORD.

MAZALL-061700-
EASTERN MASSACHUSETTS

CITY           SKY/WX    TMP DP  RH WIND       PRES   REMARKS
BOSTON         PTSUNNY   51  45  79 E15       29.86S
BEVERLY        CLOUDY    53  44  71 E12       29.86R
LAWRENCE       CLOUDY    57  45  64 E9        29.87R
BEDFORD        CLOUDY    57  46  66 NE16      29.83S
BLUE HILL        N/A     50  43  77 NE15G24   29.83R
NORWOOD        CLOUDY    54  44  69 E14G25    29.85R
MARSHFIELD     MOSUNNY   50  45  81 NE13      29.89R
PLYMOUTH       PTSUNNY   50  44  80 NE17G24   29.86R
TAUNTON        CLOUDY    56  44  64 VRB7G17   29.83R
NEW BEDFORD    CLOUDY    55  46  71 NE18      29.82S
$$

MAZALL-061700-
CAPE COD AND THE ISLANDS

CITY           SKY/WX    TMP DP  RH WIND       PRES   REMARKS
FALMOUTH       CLOUDY    52  45  76 NE17      29.83S
HYANNIS        CLOUDY    53  45  74 N15G23    29.82R
CHATHAM        PTSUNNY   50  44  80 NE13G21   29.85R
PROVINCETOWN   SUNNY     51  46  83 NE10      29.87R
NANTUCKET      CLOUDY    52  44  74 NE21G28   29.83S
MARTHAS VNYRD  CLOUDY    54  46  74 NE18G25   29.82S
$$

MAZALL-061700-
CENTRAL AND WESTERN MASSACHUSETTS

CITY           SKY/WX    TMP DP  RH WIND       PRES   REMARKS
WORCESTER      CLOUDY    53  44  71 NE10G21   29.82R
FITCHBURG      CLOUDY    58  45  62 E12       29.84R
ORANGE         CLOUDY    60  47  61 NE5       29.80S
SPRINGFIELD    PTSUNNY   61  46  58 NE12      29.78R
WESTFIELD      CLOUDY    60  46  59 N10       29.79R
NORTH ADAMS    CLOUDY    62  44  51 VRB6      29.78S
PITTSFIELD     LGT RAIN  57  45  64 NE7       29.77R
$$

RIZALL-061700-
RHODE ISLAND

CITY           SKY/WX    TMP DP  RH WIND       PRES   REMARKS
PROVIDENCE     CLOUDY    56  45  66 NE15G22   29.82S
NEWPORT        SUNNY     56  47  71 NE15G21   29.80S
BLOCK ISLAND   CLOUDY    49  45  86 E22G29    29.79R
SMITHFIELD     CLOUDY    54  45  71 NE13G18   29.83S
WESTERLY       CLOUDY    58  45  62 NE13G24   29.78S
$$

CTZALL-061700-
CONNECTICUT

CITY           SKY/WX    TMP DP  RH WIND       PRES   REMARKS
BRADLEY INTL   CLOUDY    60  46  59 NE13      29.78S
HARTFORD       CLOUDY    58  46  64 NE9       29.78S
BRIDGEPORT     CLOUDY    53  48  83 E15       29.76R
DANBURY        LGT RAIN  51  47  86 E12       29.76R
GROTON         LGT RAIN  58  49  72 E15       29.77R
NEW HAVEN      CLOUDY    57  49  74 NE8       29.74S
CHESTER        FAIR      57  46  67 NE12      29.76S
MERIDEN        CLOUDY    58  47  66 NE8       29.77S
WILLIMANTIC    CLOUDY    58  46  64 NE14      29.79S
OXFORD         PTSUNNY   54  48  82 E14G24    29.76F
$$

MEZ002-015-021-024-NHZ003-005-008-011-012-014-VTZ005-008-061700-
NORTHERN NEW ENGLAND

CITY           SKY/WX    TMP DP  RH WIND       PRES   REMARKS
PORTLAND ME    PTSUNNY   58  46  64 E8        29.86R
BANGOR ME      MOSUNNY   61  43  51 N14       29.85R
CONCORD NH     CLOUDY    64  44  48 CALM      29.83S
MANCHESTER NH  PTSUNNY   61  44  53 S7        29.83R
NASHUA NH      CLOUDY    60  47  61 E12       29.84S
PORTSMOUTH NH  CLOUDY    56  45  65 E10       29.85R
JAFFREY NH     MOSUNNY   60  46  59 VRB6      29.82S
KEENE NH       SUNNY     63  46  55 E6        29.81S
BURLINGTON VT  FAIR      60  40  47 NW17      29.85F
MT. WASHINGTON MOSUNNY   46  41  81 SE5         N/A
$$

NYZ052-076-061700-
EASTERN NEW YORK

CITY           SKY/WX    TMP DP  RH WIND       PRES   REMARKS
ALBANY         CLOUDY    57  42  57 N7        29.81R
NEW YORK CITY  CLOUDY    51  48  89 NE18      29.73S
$$

ANZALL-061700-
MARINE OBSERVATIONS

STATION/POSITION TIME  TEMP    WIND        PRES    VSBY  WAVE
                       AIR SEA DIR/SP/G                  HT/PER
                 (UTC) (F)     (DEG/KT/KT) (MB)    (MI)  (FT/S)
BOSTON BUOY      1550   47 47   50/ 12/ 14 1010.7R         6/ 8
BUZZARDS BAY     1500   48      60/ 23/ 25 1009.6R
NANTUCKET SOUND  1550   47 47   50/ 17/ 21 1010.0R         3/ 3
MASS BAY-STELLWA 1504   46 47                N/A    1 7/8  7/ 8
ISLE OF SHOALS   1500   47      60/ 12/ 14 1010.9R
S OF BLOCK IS    NOT AVBL
$$

......................KEY.........................
  SKY/WX - SKY CONDITION/PRESENT WEATHER
  TMP    - TEMPERATURE IN FAHRENHEIT
  DWPT   - DEWPOINT IN FAHRENHEIT
  RH     - RELATIVE HUMIDITY IN PERCENT
  WIND   - DIRECTION AND SPEED IN MPH
  PRES   - MEAN SEA LEVEL PRESSURE IN INCHES OF HG
  WCI    - WIND CHILL INDEX
  VSB    - VISIBILITY IN MILES
  HX     - HEAT INDEX
  TC     - TEMPERATURE IN CELSIUS
  VRB    - VARIABLE WIND DIRECTION
  N/A    - NOT AVAILABLE



USA.gov is the U.S. government's official web portal to all federal, state and local government web resources and services.